When you browse on this site, cookies collect data to enhance your experience and personalize the content and advertising you see.
Visit our Privacy Policy to learn more. By continuing to use the site, you agree to this use of cookies and data.
  • In United Kingdom
  • List of Countries
  • For 7 days
  • Water Temperature
  • Satellite Maps
  • Weather Map
  • Weather Widgets
  • user-avatar
    Login

    Hourly Weather Lorient

    Today, 21 February, Thursday

    Time Temperature Precipitation Wind Pressure Humidity
    00:00 +8°C° 0 mm 3 mps 766 mmHg 95%
    01:00 +8°C° 0 mm 3 mps 766 mmHg 96%
    02:00 +8°C° 0 mm 3 mps 766 mmHg 96%
    03:00 +8°C° 0 mm 3 mps 766 mmHg 96%
    04:00 +8°C° 0 mm 3 mps 766 mmHg 96%
    05:00 +8°C° 0 mm 3 mps 766 mmHg 96%
    06:00 +8°C° 0 mm 3 mps 766 mmHg 96%
    07:00 +9°C° 0 mm 3 mps 767 mmHg 93%
    08:00 +8°C° 0 mm 4 mps 767 mmHg 91%
    09:00 +10°C° 0 mm 4 mps 767 mmHg 89%
    10:00 +11°C° 0 mm 4 mps 767 mmHg 82%
    11:00 +12°C° 0 mm 4 mps 768 mmHg 76%
    12:00 +13°C° 0 mm 4 mps 768 mmHg 69%
    13:00 +13°C° 0 mm 4 mps 768 mmHg 68%
    14:00 +14°C° 0 mm 4 mps 768 mmHg 66%
    15:00 +14°C° 0 mm 4 mps 767 mmHg 65%
    16:00 +12°C° 0 mm 4 mps 768 mmHg 72%
    17:00 +11°C° 0 mm 4 mps 768 mmHg 80%
    18:00 +10°C° 0 mm 3 mps 768 mmHg 87%
    19:00 +9°C° 0 mm 3 mps 768 mmHg 88%
    20:00 +9°C° 0 mm 3 mps 769 mmHg 90%
    21:00 +9°C° 0 mm 3 mps 769 mmHg 91%
    22:00 +8°C° 0 mm 4 mps 769 mmHg 91%
    23:00 +8°C° 0 mm 4 mps 770 mmHg 91%

    Tomorrow, 22 February, Friday

    Time Temperature Precipitation Wind Pressure Humidity
    00:00 +8°C° 0 mm 4 mps 770 mmHg 92%
    01:00 +7°C° 0 mm 4 mps 770 mmHg 91%
    02:00 +7°C° 0 mm 4 mps 770 mmHg 91%
    03:00 +7°C° 0 mm 4 mps 770 mmHg 91%
    04:00 +7°C° 0 mm 4 mps 770 mmHg 91%
    05:00 +6°C° 0 mm 4 mps 770 mmHg 91%
    06:00 +6°C° 0 mm 4 mps 770 mmHg 90%
    07:00 +7°C° 0 mm 4 mps 770 mmHg 86%
    08:00 +8°C° 0 mm 5 mps 771 mmHg 82%
    09:00 +9°C° 0 mm 5 mps 771 mmHg 78%
    10:00 +10°C° 0 mm 5 mps 771 mmHg 74%
    11:00 +13°C° 0 mm 5 mps 771 mmHg 70%
    12:00 +14°C° 0 mm 5 mps 771 mmHg 65%
    13:00 +15°C° 0 mm 5 mps 771 mmHg 64%
    14:00 +15°C° 0 mm 5 mps 770 mmHg 63%
    15:00 +16°C° 0 mm 5 mps 770 mmHg 61%
    16:00 +14°C° 0 mm 4 mps 770 mmHg 69%
    17:00 +13°C° 0 mm 4 mps 770 mmHg 76%
    18:00 +11°C° 0 mm 4 mps 770 mmHg 84%
    19:00 +11°C° 0 mm 4 mps 770 mmHg 84%
    20:00 +9°C° 0 mm 5 mps 770 mmHg 85%
    21:00 +9°C° 0 mm 5 mps 770 mmHg 86%
    22:00 +9°C° 0 mm 5 mps 770 mmHg 86%
    23:00 +8°C° 0 mm 5 mps 770 mmHg 85%

    Day after tomorrow, 23 February, Saturday

    Time Temperature Precipitation Wind Pressure Humidity
    00:00 +8°C° 0 mm 5 mps 769 mmHg 85%
    01:00 +7°C° 0 mm 5 mps 769 mmHg 86%
    02:00 +7°C° 0 mm 5 mps 769 mmHg 88%
    03:00 +7°C° 0 mm 5 mps 769 mmHg 89%
    04:00 +7°C° 0 mm 5 mps 769 mmHg 90%
    05:00 +6°C° 0 mm 4 mps 769 mmHg 91%
    06:00 +6°C° 0 mm 4 mps 769 mmHg 93%
    07:00 +7°C° 0 mm 4 mps 770 mmHg 90%
    08:00 +8°C° 0 mm 4 mps 770 mmHg 88%
    09:00 +10°C° 0 mm 4 mps 770 mmHg 86%
    10:00 +11°C° 0 mm 3 mps 770 mmHg 81%
    11:00 +13°C° 0 mm 3 mps 770 mmHg 75%
    12:00 +14°C° 0 mm 3 mps 770 mmHg 70%
    13:00 +16°C° 0 mm 2 mps 770 mmHg 68%
    14:00 +16°C° 0 mm 2 mps 770 mmHg 67%
    15:00 +16°C° 0 mm 1 mps 770 mmHg 65%
    16:00 +15°C° 0 mm 1 mps 770 mmHg 71%
    17:00 +13°C° 0 mm 1 mps 770 mmHg 77%
    18:00 +11°C° 0 mm 0 mps 770 mmHg 83%
    19:00 +11°C° 0 mm 0 mps 771 mmHg 83%
    20:00 +12°C° 0 mm 1 mps 771 mmHg 83%
    21:00 +11°C° 0 mm 1 mps 771 mmHg 82%
    22:00 +11°C° 0 mm 1 mps 771 mmHg 84%
    23:00 +11°C° 0 mm 1 mps 771 mmHg 86%

    24 February, Sunday

    Time Temperature Precipitation Wind Pressure Humidity
    00:00 +11°C° 0 mm 1 mps 771 mmHg 87%
    01:00 +11°C° 0 mm 1 mps 771 mmHg 88%
    02:00 +10°C° 0 mm 1 mps 771 mmHg 88%
    03:00 +10°C° 0 mm 1 mps 771 mmHg 89%
    04:00 +9°C° 0 mm 2 mps 771 mmHg 89%
    05:00 +9°C° 0 mm 2 mps 771 mmHg 89%
    06:00 +8°C° 0 mm 2 mps 771 mmHg 90%
    07:00 +9°C° 0 mm 2 mps 771 mmHg 87%
    08:00 +10°C° 0 mm 3 mps 772 mmHg 84%
    09:00 +11°C° 0 mm 3 mps 772 mmHg 81%
    10:00 +12°C° 0 mm 3 mps 772 mmHg 75%
    11:00 +14°C° 0 mm 3 mps 772 mmHg 69%
    12:00 +16°C° 0 mm 3 mps 772 mmHg 63%
    13:00 +16°C° 0 mm 2 mps 772 mmHg 62%
    14:00 +17°C° 0 mm 2 mps 772 mmHg 61%
    15:00 +18°C° 0 mm 1 mps 772 mmHg 60%
    16:00 +15°C° 0 mm 1 mps 772 mmHg 67%
    17:00 +14°C° 0 mm 1 mps 772 mmHg 74%
    18:00 +12°C° 0 mm 1 mps 772 mmHg 81%
    19:00 +11°C° 0 mm 1 mps 772 mmHg 82%
    20:00 +11°C° 0 mm 1 mps 773 mmHg 84%
    21:00 +11°C° 0 mm 1 mps 773 mmHg 85%
    22:00 +10°C° 0 mm 1 mps 773 mmHg 86%
    23:00 +10°C° 0 mm 1 mps 773 mmHg 87%

    25 February, Monday

    Time Temperature Precipitation Wind Pressure Humidity
    00:00 +9°C° 0 mm 2 mps 773 mmHg 88%
    01:00 +9°C° 0 mm 2 mps 773 mmHg 87%
    02:00 +8°C° 0 mm 2 mps 773 mmHg 86%
    03:00 +8°C° 0 mm 2 mps 773 mmHg 85%
    04:00 +7°C° 0 mm 2 mps 773 mmHg 85%
    05:00 +7°C° 0 mm 3 mps 773 mmHg 84%
    06:00 +7°C° 0 mm 3 mps 773 mmHg 84%
    07:00 +8°C° 0 mm 3 mps 773 mmHg 81%
    08:00 +8°C° 0 mm 3 mps 773 mmHg 78%
    09:00 +9°C° 0 mm 3 mps 773 mmHg 76%
    10:00 +11°C° 0 mm 3 mps 773 mmHg 71%
    11:00 +13°C° 0 mm 3 mps 773 mmHg 67%
    12:00 +15°C° 0 mm 2 mps 772 mmHg 62%
    13:00 +16°C° 0 mm 2 mps 772 mmHg 61%
    14:00 +16°C° 0 mm 2 mps 772 mmHg 61%
    15:00 +17°C° 0 mm 2 mps 771 mmHg 60%
    16:00 +16°C° 0 mm 2 mps 771 mmHg 68%
    17:00 +14°C° 0 mm 2 mps 771 mmHg 76%
    18:00 +13°C° 0 mm 2 mps 771 mmHg 83%
    19:00 +11°C° 0 mm 3 mps 771 mmHg 86%
    20:00 +10°C° 0 mm 3 mps 771 mmHg 89%
    21:00 +8°C° 0 mm 4 mps 771 mmHg 91%
    22:00 +8°C° 0 mm 4 mps 770 mmHg 90%
    23:00 +8°C° 0 mm 4 mps 770 mmHg 90%

    26 February, Tuesday

    Time Temperature Precipitation Wind Pressure Humidity
    00:00 +7°C° 0 mm 4 mps 770 mmHg 89%
    01:00 +7°C° 0 mm 4 mps 769 mmHg 87%
    02:00 +7°C° 0 mm 5 mps 769 mmHg 86%
    03:00 +6°C° 0 mm 5 mps 769 mmHg 84%
    04:00 +6°C° 0 mm 5 mps 768 mmHg 85%
    05:00 +5°C° 0 mm 5 mps 768 mmHg 85%
    06:00 +5°C° 0 mm 5 mps 768 mmHg 86%
    07:00 +6°C° 0 mm 5 mps 768 mmHg 83%
    08:00 +7°C° 0 mm 5 mps 767 mmHg 81%
    09:00 +8°C° 0 mm 6 mps 767 mmHg 78%
    10:00 +9°C° 0 mm 6 mps 767 mmHg 76%
    11:00 +10°C° 0 mm 6 mps 767 mmHg 73%
    12:00 +13°C° 0 mm 5 mps 766 mmHg 70%
    13:00 +13°C° 0 mm 5 mps 766 mmHg 72%
    14:00 +14°C° 0 mm 5 mps 765 mmHg 73%
    15:00 +14°C° 0 mm 5 mps 765 mmHg 74%
    16:00 +13°C° 0 mm 5 mps 765 mmHg 79%
    17:00 +12°C° 0 mm 5 mps 765 mmHg 85%
    18:00 +11°C° 0 mm 4 mps 764 mmHg 90%
    19:00 +10°C° 0 mm 4 mps 764 mmHg 90%
    20:00 +10°C° 0 mm 4 mps 764 mmHg 90%
    21:00 +9°C° 0 mm 5 mps 764 mmHg 91%
    22:00 +9°C° 0 mm 5 mps 764 mmHg 91%
    23:00 +10°C° 0 mm 5 mps 764 mmHg 91%
    Show more